This is the latest recevied weather packets stored in our database for station/object WD4DAN-13. If no packets are shown the sender has not sent any weather packets the latest 1 day(s).
| Time | Temp. | Humidity | Pressure | Rain* | Wind** | Luminosity | Snow |
|---|---|---|---|---|---|---|---|
| 1778028061 | 23.89° C | 63% | - | 0 mm | - | - | - |
| 1778027757 | 24.44° C | 62% | - | 0 mm | - | - | - |
| 1778027453 | 24.44° C | 61% | - | 0 mm | - | - | - |
| 1778027149 | 25° C | 60% | - | 0 mm | - | - | - |
| 1778026542 | 25° C | 59% | - | 0 mm | - | - | - |
| 1778023515 | 27.22° C | 53% | - | 0 mm | - | - | - |
| 1778023212 | 27.22° C | 54% | - | 0 mm | - | - | - |
| 1778022909 | 27.22° C | 53% | - | 0 mm | - | - | - |
| 1778022608 | 27.22° C | 53% | - | 0 mm | - | - | - |
| 1778021698 | 27.78° C | 52% | - | 0 mm | - | - | - |
| 1778021394 | 27.78° C | 52% | - | 0 mm | - | - | - |
| 1778020485 | 28.33° C | 51% | - | 0 mm | - | - | - |
| 1778020181 | 28.33° C | 51% | - | 0 mm | - | - | - |
| 1778015031 | 28.89° C | 46% | - | 0 mm | - | - | - |
| 1778014426 | 28.89° C | 45% | - | 0 mm | - | - | - |
| 1778013820 | 28.33° C | 47% | - | 0 mm | - | - | - |
| 1778012910 | 28.89° C | 47% | - | 0 mm | - | - | - |
| 1778012303 | 28.89° C | 46% | - | 0 mm | - | - | - |
| 1778008971 | 28.89° C | 46% | - | 0 mm | - | - | - |
| 1778006847 | 28.33° C | 51% | - | 0 mm | - | - | - |
| 1778006241 | 27.78° C | 53% | - | 0 mm | - | - | - |
| 1778005939 | 27.22° C | 51% | - | 0 mm | - | - | - |
| 1778005332 | 27.78° C | 54% | - | 0 mm | - | - | - |
| 1778002298 | 26.67° C | 50% | - | 0 mm | - | - | - |
| 1778001084 | 26.11° C | 55% | - | 0 mm | - | - | - |
* Rain latest hour (hover to see other rain measurements)
** Current wind speed in m/s (hover to see current wind gust speed)